<?xml version="1.0" encoding="UTF-8" standalone="no" ?>
<gpx xmlns="http://www.topografix.com/GPX/1/1" xmlns:xsi="http://www.w3.org/2001/XMLSchema-instance" xsi:schemaLocation="http://www.topografix.com/GPX/1/1 http://www.topografix.com/GPX/1/1/gpx.xsd" version="1.1" creator="VisuGPX - https://www.visugpx.com">
  <metadata>
    <name>hhshshsshshshsshsh</name>
  </metadata>
  <trk>
    <name><![CDATA[12435776-Vélo To Terroir J-1]]></name>
    <trkseg>
      <trkpt lat="45.33732" lon="5.34298">
        <ele>399</ele>
        <time>2021-01-15T10:59:16Z</time>
      </trkpt>
      <trkpt lat="45.33814" lon="5.34256">
        <ele>399</ele>
        <time>2021-01-15T10:59:36Z</time>
      </trkpt>
      <trkpt lat="45.33856" lon="5.34237">
        <ele>398</ele>
        <time>2021-01-15T10:59:47Z</time>
      </trkpt>
      <trkpt lat="45.3386" lon="5.34234">
        <ele>398</ele>
        <time>2021-01-15T10:59:48Z</time>
      </trkpt>
      <trkpt lat="45.33883" lon="5.34228">
        <ele>397</ele>
        <time>2021-01-15T10:59:53Z</time>
      </trkpt>
      <trkpt lat="45.34009" lon="5.34171">
        <ele>396</ele>
        <time>2021-01-15T11:00:24Z</time>
      </trkpt>
      <trkpt lat="45.34016" lon="5.34172">
        <ele>396</ele>
        <time>2021-01-15T11:00:26Z</time>
      </trkpt>
      <trkpt lat="45.34019" lon="5.34152">
        <ele>395</ele>
        <time>2021-01-15T11:00:29Z</time>
      </trkpt>
      <trkpt lat="45.33986" lon="5.34042">
        <ele>394</ele>
        <time>2021-01-15T11:00:49Z</time>
      </trkpt>
      <trkpt lat="45.34013" lon="5.34018">
        <ele>393</ele>
        <time>2021-01-15T11:00:56Z</time>
      </trkpt>
      <trkpt lat="45.34027" lon="5.34001">
        <ele>392</ele>
        <time>2021-01-15T11:01:00Z</time>
      </trkpt>
      <trkpt lat="45.34033" lon="5.33991">
        <ele>392</ele>
        <time>2021-01-15T11:01:03Z</time>
      </trkpt>
      <trkpt lat="45.34037" lon="5.33986">
        <ele>392</ele>
        <time>2021-01-15T11:01:04Z</time>
      </trkpt>
      <trkpt lat="45.34072" lon="5.33941">
        <ele>391</ele>
        <time>2021-01-15T11:01:15Z</time>
      </trkpt>
      <trkpt lat="45.34096" lon="5.33909">
        <ele>390</ele>
        <time>2021-01-15T11:01:23Z</time>
      </trkpt>
      <trkpt lat="45.34101" lon="5.33903">
        <ele>390</ele>
        <time>2021-01-15T11:01:24Z</time>
      </trkpt>
      <trkpt lat="45.34119" lon="5.33865">
        <ele>390</ele>
        <time>2021-01-15T11:01:32Z</time>
      </trkpt>
      <trkpt lat="45.34129" lon="5.33836">
        <ele>390</ele>
        <time>2021-01-15T11:01:37Z</time>
      </trkpt>
      <trkpt lat="45.34133" lon="5.33816">
        <ele>390</ele>
        <time>2021-01-15T11:01:40Z</time>
      </trkpt>
      <trkpt lat="45.34141" lon="5.33821">
        <ele>390</ele>
        <time>2021-01-15T11:01:42Z</time>
      </trkpt>
      <trkpt lat="45.3415" lon="5.33822">
        <ele>390</ele>
        <time>2021-01-15T11:01:44Z</time>
      </trkpt>
      <trkpt lat="45.34158" lon="5.33818">
        <ele>390</ele>
        <time>2021-01-15T11:01:46Z</time>
      </trkpt>
      <trkpt lat="45.34163" lon="5.33812">
        <ele>390</ele>
        <time>2021-01-15T11:01:48Z</time>
      </trkpt>
      <trkpt lat="45.34168" lon="5.33802">
        <ele>390</ele>
        <time>2021-01-15T11:01:50Z</time>
      </trkpt>
      <trkpt lat="45.34169" lon="5.33792">
        <ele>390</ele>
        <time>2021-01-15T11:01:52Z</time>
      </trkpt>
      <trkpt lat="45.34168" lon="5.33782">
        <ele>391</ele>
        <time>2021-01-15T11:01:53Z</time>
      </trkpt>
      <trkpt lat="45.34164" lon="5.33771">
        <ele>391</ele>
        <time>2021-01-15T11:01:55Z</time>
      </trkpt>
      <trkpt lat="45.34186" lon="5.33679">
        <ele>390</ele>
        <time>2021-01-15T11:02:11Z</time>
      </trkpt>
      <trkpt lat="45.34273" lon="5.3334">
        <ele>384</ele>
        <time>2021-01-15T11:03:10Z</time>
      </trkpt>
      <trkpt lat="45.34305" lon="5.33359">
        <ele>382</ele>
        <time>2021-01-15T11:03:19Z</time>
      </trkpt>
      <trkpt lat="45.34314" lon="5.33359">
        <ele>382</ele>
        <time>2021-01-15T11:03:21Z</time>
      </trkpt>
      <trkpt lat="45.34339" lon="5.33351">
        <ele>380</ele>
        <time>2021-01-15T11:03:27Z</time>
      </trkpt>
      <trkpt lat="45.34383" lon="5.33327">
        <ele>380</ele>
        <time>2021-01-15T11:03:38Z</time>
      </trkpt>
      <trkpt lat="45.34499" lon="5.33229">
        <ele>381</ele>
        <time>2021-01-15T11:04:09Z</time>
      </trkpt>
      <trkpt lat="45.34548" lon="5.33216">
        <ele>381</ele>
        <time>2021-01-15T11:04:21Z</time>
      </trkpt>
      <trkpt lat="45.34758" lon="5.33175">
        <ele>377</ele>
        <time>2021-01-15T11:05:10Z</time>
      </trkpt>
      <trkpt lat="45.34867" lon="5.33157">
        <ele>377</ele>
        <time>2021-01-15T11:05:36Z</time>
      </trkpt>
      <trkpt lat="45.34928" lon="5.31671">
        <ele>368</ele>
        <time>2021-01-15T11:09:40Z</time>
      </trkpt>
      <trkpt lat="45.34932" lon="5.31649">
        <ele>368</ele>
        <time>2021-01-15T11:09:44Z</time>
      </trkpt>
      <trkpt lat="45.34951" lon="5.31595">
        <ele>369</ele>
        <time>2021-01-15T11:09:54Z</time>
      </trkpt>
      <trkpt lat="45.34954" lon="5.31576">
        <ele>368</ele>
        <time>2021-01-15T11:09:57Z</time>
      </trkpt>
      <trkpt lat="45.34932" lon="5.31577">
        <ele>369</ele>
        <time>2021-01-15T11:10:02Z</time>
      </trkpt>
      <trkpt lat="45.34953" lon="5.31041">
        <ele>366</ele>
        <time>2021-01-15T11:11:30Z</time>
      </trkpt>
      <trkpt lat="45.34973" lon="5.30963">
        <ele>366</ele>
        <time>2021-01-15T11:11:44Z</time>
      </trkpt>
      <trkpt lat="45.34992" lon="5.30903">
        <ele>367</ele>
        <time>2021-01-15T11:11:55Z</time>
      </trkpt>
      <trkpt lat="45.35008" lon="5.30829">
        <ele>368</ele>
        <time>2021-01-15T11:12:07Z</time>
      </trkpt>
      <trkpt lat="45.35012" lon="5.30802">
        <ele>367</ele>
        <time>2021-01-15T11:12:12Z</time>
      </trkpt>
      <trkpt lat="45.34991" lon="5.30766">
        <ele>366</ele>
        <time>2021-01-15T11:12:20Z</time>
      </trkpt>
      <trkpt lat="45.3498" lon="5.30723">
        <ele>366</ele>
        <time>2021-01-15T11:12:27Z</time>
      </trkpt>
      <trkpt lat="45.34979" lon="5.30693">
        <ele>366</ele>
        <time>2021-01-15T11:12:32Z</time>
      </trkpt>
      <trkpt lat="45.34965" lon="5.30694">
        <ele>366</ele>
        <time>2021-01-15T11:12:35Z</time>
      </trkpt>
      <trkpt lat="45.34952" lon="5.30695">
        <ele>366</ele>
        <time>2021-01-15T11:12:38Z</time>
      </trkpt>
      <trkpt lat="45.34936" lon="5.30697">
        <ele>366</ele>
        <time>2021-01-15T11:12:42Z</time>
      </trkpt>
      <trkpt lat="45.34884" lon="5.30703">
        <ele>366</ele>
        <time>2021-01-15T11:12:54Z</time>
      </trkpt>
      <trkpt lat="45.34852" lon="5.30707">
        <ele>367</ele>
        <time>2021-01-15T11:13:02Z</time>
      </trkpt>
      <trkpt lat="45.34827" lon="5.30711">
        <ele>366</ele>
        <time>2021-01-15T11:13:08Z</time>
      </trkpt>
      <trkpt lat="45.34813" lon="5.30713">
        <ele>366</ele>
        <time>2021-01-15T11:13:11Z</time>
      </trkpt>
      <trkpt lat="45.34772" lon="5.3072">
        <ele>367</ele>
        <time>2021-01-15T11:13:21Z</time>
      </trkpt>
      <trkpt lat="45.34759" lon="5.30722">
        <ele>367</ele>
        <time>2021-01-15T11:13:24Z</time>
      </trkpt>
      <trkpt lat="45.34669" lon="5.30733">
        <ele>370</ele>
        <time>2021-01-15T11:13:45Z</time>
      </trkpt>
      <trkpt lat="45.34658" lon="5.30735">
        <ele>370</ele>
        <time>2021-01-15T11:13:47Z</time>
      </trkpt>
      <trkpt lat="45.34652" lon="5.30735">
        <ele>370</ele>
        <time>2021-01-15T11:13:49Z</time>
      </trkpt>
      <trkpt lat="45.34626" lon="5.30734">
        <ele>369</ele>
        <time>2021-01-15T11:13:55Z</time>
      </trkpt>
      <trkpt lat="45.3461" lon="5.30729">
        <ele>369</ele>
        <time>2021-01-15T11:13:59Z</time>
      </trkpt>
      <trkpt lat="45.34461" lon="5.30722">
        <ele>367</ele>
        <time>2021-01-15T11:14:34Z</time>
      </trkpt>
      <trkpt lat="45.3437" lon="5.30697">
        <ele>366</ele>
        <time>2021-01-15T11:14:55Z</time>
      </trkpt>
      <trkpt lat="45.34261" lon="5.30696">
        <ele>365</ele>
        <time>2021-01-15T11:15:21Z</time>
      </trkpt>
      <trkpt lat="45.34157" lon="5.30706">
        <ele>366</ele>
        <time>2021-01-15T11:15:45Z</time>
      </trkpt>
      <trkpt lat="45.34094" lon="5.30687">
        <ele>367</ele>
        <time>2021-01-15T11:16:00Z</time>
      </trkpt>
      <trkpt lat="45.34051" lon="5.30657">
        <ele>368</ele>
        <time>2021-01-15T11:16:11Z</time>
      </trkpt>
      <trkpt lat="45.34049" lon="5.30646">
        <ele>369</ele>
        <time>2021-01-15T11:16:13Z</time>
      </trkpt>
      <trkpt lat="45.34015" lon="5.30672">
        <ele>369</ele>
        <time>2021-01-15T11:16:22Z</time>
      </trkpt>
      <trkpt lat="45.33985" lon="5.30688">
        <ele>370</ele>
        <time>2021-01-15T11:16:30Z</time>
      </trkpt>
      <trkpt lat="45.33974" lon="5.30687">
        <ele>370</ele>
        <time>2021-01-15T11:16:32Z</time>
      </trkpt>
      <trkpt lat="45.33964" lon="5.30681">
        <ele>371</ele>
        <time>2021-01-15T11:16:35Z</time>
      </trkpt>
      <trkpt lat="45.33936" lon="5.30674">
        <ele>372</ele>
        <time>2021-01-15T11:16:41Z</time>
      </trkpt>
      <trkpt lat="45.33928" lon="5.30679">
        <ele>372</ele>
        <time>2021-01-15T11:16:43Z</time>
      </trkpt>
      <trkpt lat="45.3391" lon="5.30731">
        <ele>372</ele>
        <time>2021-01-15T11:16:53Z</time>
      </trkpt>
      <trkpt lat="45.33902" lon="5.30741">
        <ele>372</ele>
        <time>2021-01-15T11:16:55Z</time>
      </trkpt>
      <trkpt lat="45.33867" lon="5.30745">
        <ele>373</ele>
        <time>2021-01-15T11:17:04Z</time>
      </trkpt>
      <trkpt lat="45.33853" lon="5.3075">
        <ele>374</ele>
        <time>2021-01-15T11:17:07Z</time>
      </trkpt>
      <trkpt lat="45.33834" lon="5.30774">
        <ele>375</ele>
        <time>2021-01-15T11:17:13Z</time>
      </trkpt>
      <trkpt lat="45.33822" lon="5.30799">
        <ele>376</ele>
        <time>2021-01-15T11:17:18Z</time>
      </trkpt>
      <trkpt lat="45.338" lon="5.30824">
        <ele>377</ele>
        <time>2021-01-15T11:17:24Z</time>
      </trkpt>
      <trkpt lat="45.33794" lon="5.30825">
        <ele>378</ele>
        <time>2021-01-15T11:17:26Z</time>
      </trkpt>
      <trkpt lat="45.33787" lon="5.30824">
        <ele>378</ele>
        <time>2021-01-15T11:17:27Z</time>
      </trkpt>
      <trkpt lat="45.33776" lon="5.30817">
        <ele>378</ele>
        <time>2021-01-15T11:17:30Z</time>
      </trkpt>
      <trkpt lat="45.33707" lon="5.30696">
        <ele>380</ele>
        <time>2021-01-15T11:17:56Z</time>
      </trkpt>
      <trkpt lat="45.3368" lon="5.30707">
        <ele>381</ele>
        <time>2021-01-15T11:18:02Z</time>
      </trkpt>
      <trkpt lat="45.33682" lon="5.3072">
        <ele>380</ele>
        <time>2021-01-15T11:18:05Z</time>
      </trkpt>
      <trkpt lat="45.33672" lon="5.31217">
        <ele>386</ele>
        <time>2021-01-15T11:19:26Z</time>
      </trkpt>
      <trkpt lat="45.33675" lon="5.31435">
        <ele>389</ele>
        <time>2021-01-15T11:20:02Z</time>
      </trkpt>
      <trkpt lat="45.33576" lon="5.31467">
        <ele>389</ele>
        <time>2021-01-15T11:20:26Z</time>
      </trkpt>
      <trkpt lat="45.33556" lon="5.31449">
        <ele>388</ele>
        <time>2021-01-15T11:20:31Z</time>
      </trkpt>
      <trkpt lat="45.33553" lon="5.31436">
        <ele>388</ele>
        <time>2021-01-15T11:20:33Z</time>
      </trkpt>
      <trkpt lat="45.33556" lon="5.31449">
        <ele>388</ele>
        <time>2021-01-15T11:20:36Z</time>
      </trkpt>
      <trkpt lat="45.33529" lon="5.3145">
        <ele>388</ele>
        <time>2021-01-15T11:20:42Z</time>
      </trkpt>
      <trkpt lat="45.3345" lon="5.3146">
        <ele>389</ele>
        <time>2021-01-15T11:21:01Z</time>
      </trkpt>
      <trkpt lat="45.33407" lon="5.31462">
        <ele>390</ele>
        <time>2021-01-15T11:21:11Z</time>
      </trkpt>
      <trkpt lat="45.33367" lon="5.31473">
        <ele>391</ele>
        <time>2021-01-15T11:21:20Z</time>
      </trkpt>
      <trkpt lat="45.33327" lon="5.31469">
        <ele>392</ele>
        <time>2021-01-15T11:21:29Z</time>
      </trkpt>
      <trkpt lat="45.33203" lon="5.31526">
        <ele>394</ele>
        <time>2021-01-15T11:22:00Z</time>
      </trkpt>
      <trkpt lat="45.33114" lon="5.31562">
        <ele>397</ele>
        <time>2021-01-15T11:22:22Z</time>
      </trkpt>
      <trkpt lat="45.33072" lon="5.3156">
        <ele>398</ele>
        <time>2021-01-15T11:22:31Z</time>
      </trkpt>
      <trkpt lat="45.33014" lon="5.31547">
        <ele>399</ele>
        <time>2021-01-15T11:22:45Z</time>
      </trkpt>
      <trkpt lat="45.32947" lon="5.31549">
        <ele>403</ele>
        <time>2021-01-15T11:23:01Z</time>
      </trkpt>
      <trkpt lat="45.32929" lon="5.31539">
        <ele>405</ele>
        <time>2021-01-15T11:23:05Z</time>
      </trkpt>
      <trkpt lat="45.32873" lon="5.31495">
        <ele>407</ele>
        <time>2021-01-15T11:23:20Z</time>
      </trkpt>
      <trkpt lat="45.32867" lon="5.31487">
        <ele>407</ele>
        <time>2021-01-15T11:23:22Z</time>
      </trkpt>
      <trkpt lat="45.32864" lon="5.31479">
        <ele>407</ele>
        <time>2021-01-15T11:23:24Z</time>
      </trkpt>
      <trkpt lat="45.32863" lon="5.31282">
        <ele>406</ele>
        <time>2021-01-15T11:23:56Z</time>
      </trkpt>
      <trkpt lat="45.3286" lon="5.31173">
        <ele>405</ele>
        <time>2021-01-15T11:24:14Z</time>
      </trkpt>
      <trkpt lat="45.32553" lon="5.31169">
        <ele>405</ele>
        <time>2021-01-15T11:25:25Z</time>
      </trkpt>
      <trkpt lat="45.32527" lon="5.31147">
        <ele>406</ele>
        <time>2021-01-15T11:25:33Z</time>
      </trkpt>
      <trkpt lat="45.32521" lon="5.31144">
        <ele>406</ele>
        <time>2021-01-15T11:25:34Z</time>
      </trkpt>
      <trkpt lat="45.32514" lon="5.31147">
        <ele>406</ele>
        <time>2021-01-15T11:25:36Z</time>
      </trkpt>
      <trkpt lat="45.32449" lon="5.31225">
        <ele>413</ele>
        <time>2021-01-15T11:25:56Z</time>
      </trkpt>
      <trkpt lat="45.32438" lon="5.31231">
        <ele>414</ele>
        <time>2021-01-15T11:25:58Z</time>
      </trkpt>
      <trkpt lat="45.3243" lon="5.31226">
        <ele>415</ele>
        <time>2021-01-15T11:26:00Z</time>
      </trkpt>
      <trkpt lat="45.32388" lon="5.31168">
        <ele>418</ele>
        <time>2021-01-15T11:26:14Z</time>
      </trkpt>
      <trkpt lat="45.3237" lon="5.3115">
        <ele>419</ele>
        <time>2021-01-15T11:26:19Z</time>
      </trkpt>
      <trkpt lat="45.32343" lon="5.31127">
        <ele>421</ele>
        <time>2021-01-15T11:26:27Z</time>
      </trkpt>
      <trkpt lat="45.3223" lon="5.31046">
        <ele>428</ele>
        <time>2021-01-15T11:26:56Z</time>
      </trkpt>
      <trkpt lat="45.32204" lon="5.31026">
        <ele>430</ele>
        <time>2021-01-15T11:27:03Z</time>
      </trkpt>
      <trkpt lat="45.32137" lon="5.30957">
        <ele>431</ele>
        <time>2021-01-15T11:27:22Z</time>
      </trkpt>
      <trkpt lat="45.3211" lon="5.30921">
        <ele>431</ele>
        <time>2021-01-15T11:27:31Z</time>
      </trkpt>
      <trkpt lat="45.32096" lon="5.30896">
        <ele>434</ele>
        <time>2021-01-15T11:27:36Z</time>
      </trkpt>
      <trkpt lat="45.32091" lon="5.30882">
        <ele>436</ele>
        <time>2021-01-15T11:27:39Z</time>
      </trkpt>
      <trkpt lat="45.32134" lon="5.30797">
        <ele>439</ele>
        <time>2021-01-15T11:27:56Z</time>
      </trkpt>
      <trkpt lat="45.32188" lon="5.30708">
        <ele>434</ele>
        <time>2021-01-15T11:28:15Z</time>
      </trkpt>
      <trkpt lat="45.32215" lon="5.30601">
        <ele>436</ele>
        <time>2021-01-15T11:28:34Z</time>
      </trkpt>
      <trkpt lat="45.3222" lon="5.30577">
        <ele>437</ele>
        <time>2021-01-15T11:28:38Z</time>
      </trkpt>
      <trkpt lat="45.32259" lon="5.30516">
        <ele>434</ele>
        <time>2021-01-15T11:28:52Z</time>
      </trkpt>
      <trkpt lat="45.32279" lon="5.30469">
        <ele>433</ele>
        <time>2021-01-15T11:29:01Z</time>
      </trkpt>
      <trkpt lat="45.32309" lon="5.30372">
        <ele>432</ele>
        <time>2021-01-15T11:29:18Z</time>
      </trkpt>
      <trkpt lat="45.32319" lon="5.30265">
        <ele>434</ele>
        <time>2021-01-15T11:29:36Z</time>
      </trkpt>
      <trkpt lat="45.32317" lon="5.30192">
        <ele>433</ele>
        <time>2021-01-15T11:29:48Z</time>
      </trkpt>
      <trkpt lat="45.32311" lon="5.30099">
        <ele>434</ele>
        <time>2021-01-15T11:30:03Z</time>
      </trkpt>
      <trkpt lat="45.32313" lon="5.30051">
        <ele>434</ele>
        <time>2021-01-15T11:30:11Z</time>
      </trkpt>
      <trkpt lat="45.32321" lon="5.30017">
        <ele>433</ele>
        <time>2021-01-15T11:30:17Z</time>
      </trkpt>
      <trkpt lat="45.32331" lon="5.29993">
        <ele>433</ele>
        <time>2021-01-15T11:30:21Z</time>
      </trkpt>
      <trkpt lat="45.32356" lon="5.2996">
        <ele>431</ele>
        <time>2021-01-15T11:30:29Z</time>
      </trkpt>
      <trkpt lat="45.3242" lon="5.29853">
        <ele>432</ele>
        <time>2021-01-15T11:30:52Z</time>
      </trkpt>
      <trkpt lat="45.32431" lon="5.29832">
        <ele>432</ele>
        <time>2021-01-15T11:30:57Z</time>
      </trkpt>
      <trkpt lat="45.32454" lon="5.29764">
        <ele>431</ele>
        <time>2021-01-15T11:31:09Z</time>
      </trkpt>
      <trkpt lat="45.32462" lon="5.2975">
        <ele>430</ele>
        <time>2021-01-15T11:31:12Z</time>
      </trkpt>
      <trkpt lat="45.32473" lon="5.2973">
        <ele>429</ele>
        <time>2021-01-15T11:31:16Z</time>
      </trkpt>
      <trkpt lat="45.32487" lon="5.29701">
        <ele>428</ele>
        <time>2021-01-15T11:31:22Z</time>
      </trkpt>
      <trkpt lat="45.32496" lon="5.29669">
        <ele>427</ele>
        <time>2021-01-15T11:31:28Z</time>
      </trkpt>
      <trkpt lat="45.32511" lon="5.29603">
        <ele>427</ele>
        <time>2021-01-15T11:31:39Z</time>
      </trkpt>
      <trkpt lat="45.32529" lon="5.29534">
        <ele>426</ele>
        <time>2021-01-15T11:31:51Z</time>
      </trkpt>
      <trkpt lat="45.32536" lon="5.29473">
        <ele>427</ele>
        <time>2021-01-15T11:32:01Z</time>
      </trkpt>
      <trkpt lat="45.32544" lon="5.29407">
        <ele>429</ele>
        <time>2021-01-15T11:32:12Z</time>
      </trkpt>
      <trkpt lat="45.32562" lon="5.29336">
        <ele>428</ele>
        <time>2021-01-15T11:32:25Z</time>
      </trkpt>
      <trkpt lat="45.32589" lon="5.2923">
        <ele>424</ele>
        <time>2021-01-15T11:32:43Z</time>
      </trkpt>
      <trkpt lat="45.32631" lon="5.2912">
        <ele>418</ele>
        <time>2021-01-15T11:33:04Z</time>
      </trkpt>
      <trkpt lat="45.32632" lon="5.29088">
        <ele>418</ele>
        <time>2021-01-15T11:33:09Z</time>
      </trkpt>
      <trkpt lat="45.32628" lon="5.29026">
        <ele>418</ele>
        <time>2021-01-15T11:33:19Z</time>
      </trkpt>
      <trkpt lat="45.32635" lon="5.28949">
        <ele>415</ele>
        <time>2021-01-15T11:33:32Z</time>
      </trkpt>
      <trkpt lat="45.3266" lon="5.28863">
        <ele>410</ele>
        <time>2021-01-15T11:33:47Z</time>
      </trkpt>
      <trkpt lat="45.32658" lon="5.28833">
        <ele>410</ele>
        <time>2021-01-15T11:33:52Z</time>
      </trkpt>
      <trkpt lat="45.32654" lon="5.28812">
        <ele>411</ele>
        <time>2021-01-15T11:33:56Z</time>
      </trkpt>
      <trkpt lat="45.3269" lon="5.28795">
        <ele>406</ele>
        <time>2021-01-15T11:34:05Z</time>
      </trkpt>
      <trkpt lat="45.32719" lon="5.28762">
        <ele>403</ele>
        <time>2021-01-15T11:34:13Z</time>
      </trkpt>
      <trkpt lat="45.32775" lon="5.28742">
        <ele>397</ele>
        <time>2021-01-15T11:34:27Z</time>
      </trkpt>
      <trkpt lat="45.32904" lon="5.28775">
        <ele>384</ele>
        <time>2021-01-15T11:34:57Z</time>
      </trkpt>
      <trkpt lat="45.32963" lon="5.28793">
        <ele>380</ele>
        <time>2021-01-15T11:35:12Z</time>
      </trkpt>
      <trkpt lat="45.33016" lon="5.28832">
        <ele>378</ele>
        <time>2021-01-15T11:35:25Z</time>
      </trkpt>
      <trkpt lat="45.33023" lon="5.28838">
        <ele>378</ele>
        <time>2021-01-15T11:35:27Z</time>
      </trkpt>
      <trkpt lat="45.33069" lon="5.28847">
        <ele>376</ele>
        <time>2021-01-15T11:35:38Z</time>
      </trkpt>
      <trkpt lat="45.33058" lon="5.287">
        <ele>375</ele>
        <time>2021-01-15T11:36:03Z</time>
      </trkpt>
      <trkpt lat="45.32986" lon="5.27666">
        <ele>382</ele>
        <time>2021-01-15T11:38:53Z</time>
      </trkpt>
      <trkpt lat="45.32975" lon="5.27531">
        <ele>382</ele>
        <time>2021-01-15T11:39:15Z</time>
      </trkpt>
      <trkpt lat="45.3297" lon="5.27435">
        <ele>383</ele>
        <time>2021-01-15T11:39:31Z</time>
      </trkpt>
      <trkpt lat="45.3298" lon="5.2723">
        <ele>385</ele>
        <time>2021-01-15T11:40:05Z</time>
      </trkpt>
      <trkpt lat="45.32982" lon="5.27078">
        <ele>385</ele>
        <time>2021-01-15T11:40:30Z</time>
      </trkpt>
      <trkpt lat="45.32979" lon="5.26976">
        <ele>385</ele>
        <time>2021-01-15T11:40:47Z</time>
      </trkpt>
      <trkpt lat="45.32967" lon="5.26875">
        <ele>386</ele>
        <time>2021-01-15T11:41:03Z</time>
      </trkpt>
      <trkpt lat="45.32958" lon="5.26781">
        <ele>386</ele>
        <time>2021-01-15T11:41:19Z</time>
      </trkpt>
      <trkpt lat="45.32932" lon="5.26656">
        <ele>385</ele>
        <time>2021-01-15T11:41:40Z</time>
      </trkpt>
      <trkpt lat="45.32904" lon="5.26488">
        <ele>384</ele>
        <time>2021-01-15T11:42:09Z</time>
      </trkpt>
      <trkpt lat="45.32903" lon="5.26471">
        <ele>384</ele>
        <time>2021-01-15T11:42:12Z</time>
      </trkpt>
      <trkpt lat="45.32898" lon="5.26451">
        <ele>385</ele>
        <time>2021-01-15T11:42:15Z</time>
      </trkpt>
      <trkpt lat="45.32853" lon="5.26211">
        <ele>383</ele>
        <time>2021-01-15T11:42:56Z</time>
      </trkpt>
      <trkpt lat="45.32833" lon="5.2609">
        <ele>382</ele>
        <time>2021-01-15T11:43:16Z</time>
      </trkpt>
      <trkpt lat="45.32829" lon="5.26028">
        <ele>382</ele>
        <time>2021-01-15T11:43:27Z</time>
      </trkpt>
      <trkpt lat="45.32829" lon="5.25972">
        <ele>382</ele>
        <time>2021-01-15T11:43:36Z</time>
      </trkpt>
      <trkpt lat="45.32823" lon="5.25868">
        <ele>382</ele>
        <time>2021-01-15T11:43:53Z</time>
      </trkpt>
      <trkpt lat="45.3281" lon="5.25831">
        <ele>382</ele>
        <time>2021-01-15T11:44:00Z</time>
      </trkpt>
      <trkpt lat="45.32781" lon="5.25765">
        <ele>382</ele>
        <time>2021-01-15T11:44:12Z</time>
      </trkpt>
      <trkpt lat="45.32769" lon="5.25684">
        <ele>382</ele>
        <time>2021-01-15T11:44:26Z</time>
      </trkpt>
      <trkpt lat="45.32753" lon="5.25641">
        <ele>384</ele>
        <time>2021-01-15T11:44:34Z</time>
      </trkpt>
      <trkpt lat="45.32675" lon="5.25532">
        <ele>388</ele>
        <time>2021-01-15T11:45:00Z</time>
      </trkpt>
      <trkpt lat="45.32648" lon="5.25497">
        <ele>391</ele>
        <time>2021-01-15T11:45:08Z</time>
      </trkpt>
      <trkpt lat="45.32636" lon="5.25469">
        <ele>392</ele>
        <time>2021-01-15T11:45:13Z</time>
      </trkpt>
      <trkpt lat="45.32626" lon="5.25449">
        <ele>393</ele>
        <time>2021-01-15T11:45:17Z</time>
      </trkpt>
      <trkpt lat="45.32622" lon="5.25421">
        <ele>394</ele>
        <time>2021-01-15T11:45:22Z</time>
      </trkpt>
      <trkpt lat="45.3262" lon="5.25394">
        <ele>394</ele>
        <time>2021-01-15T11:45:27Z</time>
      </trkpt>
      <trkpt lat="45.32621" lon="5.25369">
        <ele>393</ele>
        <time>2021-01-15T11:45:31Z</time>
      </trkpt>
      <trkpt lat="45.32612" lon="5.25378">
        <ele>394</ele>
        <time>2021-01-15T11:45:33Z</time>
      </trkpt>
      <trkpt lat="45.32608" lon="5.25375">
        <ele>395</ele>
        <time>2021-01-15T11:45:34Z</time>
      </trkpt>
      <trkpt lat="45.32599" lon="5.25313">
        <ele>395</ele>
        <time>2021-01-15T11:45:45Z</time>
      </trkpt>
      <trkpt lat="45.32581" lon="5.25218">
        <ele>398</ele>
        <time>2021-01-15T11:46:01Z</time>
      </trkpt>
      <trkpt lat="45.32559" lon="5.25156">
        <ele>403</ele>
        <time>2021-01-15T11:46:12Z</time>
      </trkpt>
      <trkpt lat="45.32507" lon="5.25051">
        <ele>405</ele>
        <time>2021-01-15T11:46:33Z</time>
      </trkpt>
      <trkpt lat="45.32497" lon="5.25024">
        <ele>405</ele>
        <time>2021-01-15T11:46:38Z</time>
      </trkpt>
      <trkpt lat="45.3247" lon="5.24864">
        <ele>410</ele>
        <time>2021-01-15T11:47:05Z</time>
      </trkpt>
      <trkpt lat="45.32447" lon="5.24792">
        <ele>413</ele>
        <time>2021-01-15T11:47:18Z</time>
      </trkpt>
      <trkpt lat="45.32409" lon="5.24697">
        <ele>417</ele>
        <time>2021-01-15T11:47:36Z</time>
      </trkpt>
      <trkpt lat="45.32398" lon="5.24645">
        <ele>416</ele>
        <time>2021-01-15T11:47:45Z</time>
      </trkpt>
      <trkpt lat="45.32391" lon="5.24597">
        <ele>415</ele>
        <time>2021-01-15T11:47:53Z</time>
      </trkpt>
      <trkpt lat="45.32394" lon="5.24565">
        <ele>412</ele>
        <time>2021-01-15T11:47:59Z</time>
      </trkpt>
      <trkpt lat="45.32401" lon="5.2453">
        <ele>409</ele>
        <time>2021-01-15T11:48:05Z</time>
      </trkpt>
      <trkpt lat="45.32405" lon="5.24465">
        <ele>406</ele>
        <time>2021-01-15T11:48:15Z</time>
      </trkpt>
      <trkpt lat="45.32368" lon="5.24308">
        <ele>400</ele>
        <time>2021-01-15T11:48:42Z</time>
      </trkpt>
      <trkpt lat="45.32366" lon="5.24271">
        <ele>398</ele>
        <time>2021-01-15T11:48:49Z</time>
      </trkpt>
      <trkpt lat="45.32371" lon="5.24234">
        <ele>395</ele>
        <time>2021-01-15T11:48:55Z</time>
      </trkpt>
      <trkpt lat="45.32365" lon="5.24214">
        <ele>394</ele>
        <time>2021-01-15T11:48:58Z</time>
      </trkpt>
      <trkpt lat="45.32335" lon="5.24167">
        <ele>392</ele>
        <time>2021-01-15T11:49:09Z</time>
      </trkpt>
      <trkpt lat="45.3233" lon="5.24146">
        <ele>391</ele>
        <time>2021-01-15T11:49:12Z</time>
      </trkpt>
      <trkpt lat="45.3233" lon="5.24106">
        <ele>389</ele>
        <time>2021-01-15T11:49:19Z</time>
      </trkpt>
      <trkpt lat="45.32328" lon="5.24082">
        <ele>388</ele>
        <time>2021-01-15T11:49:23Z</time>
      </trkpt>
      <trkpt lat="45.32289" lon="5.24041">
        <ele>385</ele>
        <time>2021-01-15T11:49:34Z</time>
      </trkpt>
      <trkpt lat="45.32258" lon="5.23977">
        <ele>383</ele>
        <time>2021-01-15T11:49:47Z</time>
      </trkpt>
      <trkpt lat="45.32212" lon="5.23843">
        <ele>379</ele>
        <time>2021-01-15T11:50:12Z</time>
      </trkpt>
      <trkpt lat="45.3218" lon="5.23716">
        <ele>376</ele>
        <time>2021-01-15T11:50:34Z</time>
      </trkpt>
      <trkpt lat="45.32167" lon="5.23642">
        <ele>376</ele>
        <time>2021-01-15T11:50:46Z</time>
      </trkpt>
      <trkpt lat="45.3214" lon="5.23548">
        <ele>377</ele>
        <time>2021-01-15T11:51:03Z</time>
      </trkpt>
      <trkpt lat="45.32134" lon="5.23561">
        <ele>378</ele>
        <time>2021-01-15T11:51:05Z</time>
      </trkpt>
      <trkpt lat="45.32001" lon="5.23641">
        <ele>385</ele>
        <time>2021-01-15T11:51:39Z</time>
      </trkpt>
      <trkpt lat="45.31966" lon="5.23655">
        <ele>388</ele>
        <time>2021-01-15T11:51:48Z</time>
      </trkpt>
      <trkpt lat="45.31957" lon="5.23617">
        <ele>387</ele>
        <time>2021-01-15T11:51:54Z</time>
      </trkpt>
      <trkpt lat="45.3194" lon="5.23591">
        <ele>387</ele>
        <time>2021-01-15T11:52:00Z</time>
      </trkpt>
      <trkpt lat="45.31909" lon="5.23582">
        <ele>389</ele>
        <time>2021-01-15T11:52:07Z</time>
      </trkpt>
      <trkpt lat="45.31872" lon="5.23576">
        <ele>393</ele>
        <time>2021-01-15T11:52:16Z</time>
      </trkpt>
      <trkpt lat="45.31834" lon="5.23585">
        <ele>398</ele>
        <time>2021-01-15T11:52:25Z</time>
      </trkpt>
      <trkpt lat="45.31812" lon="5.23581">
        <ele>401</ele>
        <time>2021-01-15T11:52:30Z</time>
      </trkpt>
      <trkpt lat="45.31787" lon="5.2356">
        <ele>405</ele>
        <time>2021-01-15T11:52:37Z</time>
      </trkpt>
      <trkpt lat="45.31764" lon="5.23527">
        <ele>409</ele>
        <time>2021-01-15T11:52:45Z</time>
      </trkpt>
      <trkpt lat="45.31742" lon="5.23506">
        <ele>412</ele>
        <time>2021-01-15T11:52:51Z</time>
      </trkpt>
      <trkpt lat="45.31718" lon="5.23488">
        <ele>414</ele>
        <time>2021-01-15T11:52:57Z</time>
      </trkpt>
      <trkpt lat="45.3168" lon="5.23498">
        <ele>417</ele>
        <time>2021-01-15T11:53:06Z</time>
      </trkpt>
      <trkpt lat="45.31641" lon="5.23495">
        <ele>418</ele>
        <time>2021-01-15T11:53:15Z</time>
      </trkpt>
      <trkpt lat="45.31637" lon="5.23462">
        <ele>417</ele>
        <time>2021-01-15T11:53:21Z</time>
      </trkpt>
      <trkpt lat="45.31619" lon="5.23418">
        <ele>416</ele>
        <time>2021-01-15T11:53:29Z</time>
      </trkpt>
      <trkpt lat="45.31617" lon="5.23402">
        <ele>415</ele>
        <time>2021-01-15T11:53:32Z</time>
      </trkpt>
      <trkpt lat="45.3162" lon="5.23386">
        <ele>415</ele>
        <time>2021-01-15T11:53:35Z</time>
      </trkpt>
      <trkpt lat="45.31621" lon="5.23263">
        <ele>414</ele>
        <time>2021-01-15T11:53:55Z</time>
      </trkpt>
      <trkpt lat="45.31616" lon="5.23228">
        <ele>413</ele>
        <time>2021-01-15T11:54:01Z</time>
      </trkpt>
      <trkpt lat="45.31616" lon="5.23078">
        <ele>408</ele>
        <time>2021-01-15T11:54:25Z</time>
      </trkpt>
      <trkpt lat="45.31624" lon="5.22992">
        <ele>405</ele>
        <time>2021-01-15T11:54:40Z</time>
      </trkpt>
      <trkpt lat="45.31592" lon="5.22919">
        <ele>400</ele>
        <time>2021-01-15T11:54:54Z</time>
      </trkpt>
      <trkpt lat="45.3158" lon="5.22911">
        <ele>400</ele>
        <time>2021-01-15T11:54:57Z</time>
      </trkpt>
      <trkpt lat="45.31499" lon="5.22934">
        <ele>399</ele>
        <time>2021-01-15T11:55:16Z</time>
      </trkpt>
      <trkpt lat="45.31474" lon="5.22934">
        <ele>401</ele>
        <time>2021-01-15T11:55:22Z</time>
      </trkpt>
      <trkpt lat="45.3145" lon="5.22912">
        <ele>403</ele>
        <time>2021-01-15T11:55:29Z</time>
      </trkpt>
      <trkpt lat="45.31432" lon="5.22852">
        <ele>403</ele>
        <time>2021-01-15T11:55:39Z</time>
      </trkpt>
      <trkpt lat="45.31419" lon="5.22834">
        <ele>404</ele>
        <time>2021-01-15T11:55:44Z</time>
      </trkpt>
      <trkpt lat="45.31411" lon="5.2281">
        <ele>405</ele>
        <time>2021-01-15T11:55:48Z</time>
      </trkpt>
      <trkpt lat="45.31409" lon="5.22779">
        <ele>407</ele>
        <time>2021-01-15T11:55:53Z</time>
      </trkpt>
      <trkpt lat="45.3142" lon="5.22706">
        <ele>408</ele>
        <time>2021-01-15T11:56:05Z</time>
      </trkpt>
      <trkpt lat="45.31444" lon="5.22604">
        <ele>408</ele>
        <time>2021-01-15T11:56:23Z</time>
      </trkpt>
      <trkpt lat="45.31466" lon="5.22523">
        <ele>408</ele>
        <time>2021-01-15T11:56:37Z</time>
      </trkpt>
      <trkpt lat="45.31427" lon="5.22517">
        <ele>408</ele>
        <time>2021-01-15T11:56:46Z</time>
      </trkpt>
      <trkpt lat="45.3138" lon="5.22495">
        <ele>407</ele>
        <time>2021-01-15T11:56:58Z</time>
      </trkpt>
      <trkpt lat="45.31336" lon="5.22464">
        <ele>405</ele>
        <time>2021-01-15T11:57:09Z</time>
      </trkpt>
      <trkpt lat="45.31305" lon="5.2241">
        <ele>405</ele>
        <time>2021-01-15T11:57:21Z</time>
      </trkpt>
      <trkpt lat="45.31278" lon="5.2239">
        <ele>407</ele>
        <time>2021-01-15T11:57:28Z</time>
      </trkpt>
      <trkpt lat="45.31245" lon="5.2237">
        <ele>411</ele>
        <time>2021-01-15T11:57:36Z</time>
      </trkpt>
      <trkpt lat="45.31239" lon="5.22353">
        <ele>413</ele>
        <time>2021-01-15T11:57:39Z</time>
      </trkpt>
      <trkpt lat="45.31238" lon="5.22331">
        <ele>414</ele>
        <time>2021-01-15T11:57:43Z</time>
      </trkpt>
      <trkpt lat="45.31247" lon="5.22284">
        <ele>412</ele>
        <time>2021-01-15T11:57:51Z</time>
      </trkpt>
      <trkpt lat="45.31251" lon="5.22234">
        <ele>412</ele>
        <time>2021-01-15T11:57:59Z</time>
      </trkpt>
      <trkpt lat="45.31248" lon="5.2217">
        <ele>413</ele>
        <time>2021-01-15T11:58:10Z</time>
      </trkpt>
      <trkpt lat="45.31232" lon="5.22097">
        <ele>415</ele>
        <time>2021-01-15T11:58:22Z</time>
      </trkpt>
      <trkpt lat="45.3117" lon="5.21944">
        <ele>413</ele>
        <time>2021-01-15T11:58:51Z</time>
      </trkpt>
      <trkpt lat="45.31157" lon="5.21891">
        <ele>414</ele>
        <time>2021-01-15T11:59:01Z</time>
      </trkpt>
      <trkpt lat="45.31153" lon="5.21831">
        <ele>412</ele>
        <time>2021-01-15T11:59:11Z</time>
      </trkpt>
      <trkpt lat="45.31152" lon="5.21767">
        <ele>410</ele>
        <time>2021-01-15T11:59:21Z</time>
      </trkpt>
      <trkpt lat="45.31109" lon="5.21581">
        <ele>409</ele>
        <time>2021-01-15T11:59:53Z</time>
      </trkpt>
      <trkpt lat="45.3109" lon="5.21526">
        <ele>408</ele>
        <time>2021-01-15T12:00:03Z</time>
      </trkpt>
      <trkpt lat="45.31065" lon="5.21473">
        <ele>405</ele>
        <time>2021-01-15T12:00:14Z</time>
      </trkpt>
      <trkpt lat="45.31051" lon="5.21457">
        <ele>404</ele>
        <time>2021-01-15T12:00:18Z</time>
      </trkpt>
      <trkpt lat="45.31054" lon="5.21411">
        <ele>400</ele>
        <time>2021-01-15T12:00:26Z</time>
      </trkpt>
      <trkpt lat="45.31065" lon="5.21354">
        <ele>394</ele>
        <time>2021-01-15T12:00:35Z</time>
      </trkpt>
      <trkpt lat="45.31098" lon="5.21237">
        <ele>384</ele>
        <time>2021-01-15T12:00:56Z</time>
      </trkpt>
      <trkpt lat="45.31109" lon="5.21211">
        <ele>383</ele>
        <time>2021-01-15T12:01:01Z</time>
      </trkpt>
      <trkpt lat="45.31125" lon="5.2118">
        <ele>382</ele>
        <time>2021-01-15T12:01:07Z</time>
      </trkpt>
      <trkpt lat="45.31135" lon="5.21121">
        <ele>379</ele>
        <time>2021-01-15T12:01:17Z</time>
      </trkpt>
      <trkpt lat="45.31133" lon="5.21077">
        <ele>376</ele>
        <time>2021-01-15T12:01:24Z</time>
      </trkpt>
      <trkpt lat="45.31122" lon="5.21027">
        <ele>376</ele>
        <time>2021-01-15T12:01:33Z</time>
      </trkpt>
      <trkpt lat="45.3098" lon="5.21233">
        <ele>381</ele>
        <time>2021-01-15T12:02:20Z</time>
      </trkpt>
      <trkpt lat="45.30921" lon="5.21297">
        <ele>382</ele>
        <time>2021-01-15T12:02:38Z</time>
      </trkpt>
      <trkpt lat="45.30466" lon="5.21748">
        <ele>401</ele>
        <time>2021-01-15T12:04:47Z</time>
      </trkpt>
      <trkpt lat="45.30422" lon="5.21796">
        <ele>404</ele>
        <time>2021-01-15T12:05:00Z</time>
      </trkpt>
      <trkpt lat="45.30413" lon="5.21828">
        <ele>406</ele>
        <time>2021-01-15T12:05:06Z</time>
      </trkpt>
      <trkpt lat="45.30411" lon="5.21872">
        <ele>409</ele>
        <time>2021-01-15T12:05:13Z</time>
      </trkpt>
      <trkpt lat="45.30405" lon="5.21895">
        <ele>410</ele>
        <time>2021-01-15T12:05:17Z</time>
      </trkpt>
      <trkpt lat="45.30393" lon="5.21918">
        <ele>411</ele>
        <time>2021-01-15T12:05:22Z</time>
      </trkpt>
      <trkpt lat="45.30368" lon="5.21927">
        <ele>411</ele>
        <time>2021-01-15T12:05:28Z</time>
      </trkpt>
      <trkpt lat="45.30318" lon="5.21962">
        <ele>413</ele>
        <time>2021-01-15T12:05:41Z</time>
      </trkpt>
      <trkpt lat="45.30295" lon="5.21983">
        <ele>415</ele>
        <time>2021-01-15T12:05:47Z</time>
      </trkpt>
      <trkpt lat="45.30288" lon="5.21992">
        <ele>416</ele>
        <time>2021-01-15T12:05:50Z</time>
      </trkpt>
      <trkpt lat="45.30285" lon="5.22002">
        <ele>417</ele>
        <time>2021-01-15T12:05:51Z</time>
      </trkpt>
      <trkpt lat="45.30287" lon="5.2201">
        <ele>419</ele>
        <time>2021-01-15T12:05:53Z</time>
      </trkpt>
      <trkpt lat="45.30309" lon="5.22031">
        <ele>424</ele>
        <time>2021-01-15T12:05:59Z</time>
      </trkpt>
      <trkpt lat="45.30314" lon="5.2204">
        <ele>426</ele>
        <time>2021-01-15T12:06:01Z</time>
      </trkpt>
      <trkpt lat="45.30317" lon="5.2206">
        <ele>430</ele>
        <time>2021-01-15T12:06:04Z</time>
      </trkpt>
      <trkpt lat="45.30311" lon="5.22162">
        <ele>445</ele>
        <time>2021-01-15T12:06:21Z</time>
      </trkpt>
      <trkpt lat="45.30314" lon="5.22197">
        <ele>448</ele>
        <time>2021-01-15T12:06:27Z</time>
      </trkpt>
      <trkpt lat="45.30308" lon="5.22216">
        <ele>450</ele>
        <time>2021-01-15T12:06:30Z</time>
      </trkpt>
      <trkpt lat="45.30297" lon="5.22238">
        <ele>455</ele>
        <time>2021-01-15T12:06:35Z</time>
      </trkpt>
      <trkpt lat="45.30291" lon="5.22246">
        <ele>457</ele>
        <time>2021-01-15T12:06:36Z</time>
      </trkpt>
      <trkpt lat="45.30276" lon="5.22254">
        <ele>460</ele>
        <time>2021-01-15T12:06:40Z</time>
      </trkpt>
      <trkpt lat="45.30268" lon="5.22252">
        <ele>462</ele>
        <time>2021-01-15T12:06:42Z</time>
      </trkpt>
      <trkpt lat="45.30234" lon="5.22212">
        <ele>464</ele>
        <time>2021-01-15T12:06:52Z</time>
      </trkpt>
      <trkpt lat="45.30223" lon="5.22208">
        <ele>464</ele>
        <time>2021-01-15T12:06:55Z</time>
      </trkpt>
      <trkpt lat="45.30212" lon="5.22207">
        <ele>465</ele>
        <time>2021-01-15T12:06:58Z</time>
      </trkpt>
      <trkpt lat="45.30193" lon="5.22218">
        <ele>468</ele>
        <time>2021-01-15T12:07:02Z</time>
      </trkpt>
      <trkpt lat="45.30162" lon="5.22243">
        <ele>476</ele>
        <time>2021-01-15T12:07:11Z</time>
      </trkpt>
      <trkpt lat="45.30063" lon="5.22374">
        <ele>496</ele>
        <time>2021-01-15T12:07:42Z</time>
      </trkpt>
      <trkpt lat="45.30047" lon="5.22416">
        <ele>503</ele>
        <time>2021-01-15T12:07:50Z</time>
      </trkpt>
      <trkpt lat="45.30022" lon="5.22461">
        <ele>508</ele>
        <time>2021-01-15T12:08:00Z</time>
      </trkpt>
      <trkpt lat="45.29991" lon="5.22502">
        <ele>513</ele>
        <time>2021-01-15T12:08:10Z</time>
      </trkpt>
      <trkpt lat="45.29965" lon="5.22543">
        <ele>514</ele>
        <time>2021-01-15T12:08:19Z</time>
      </trkpt>
      <trkpt lat="45.29906" lon="5.2261">
        <ele>519</ele>
        <time>2021-01-15T12:08:36Z</time>
      </trkpt>
      <trkpt lat="45.29886" lon="5.2265">
        <ele>519</ele>
        <time>2021-01-15T12:08:44Z</time>
      </trkpt>
      <trkpt lat="45.29868" lon="5.22705">
        <ele>521</ele>
        <time>2021-01-15T12:08:54Z</time>
      </trkpt>
      <trkpt lat="45.29834" lon="5.22756">
        <ele>526</ele>
        <time>2021-01-15T12:09:06Z</time>
      </trkpt>
      <trkpt lat="45.29813" lon="5.22793">
        <ele>523</ele>
        <time>2021-01-15T12:09:14Z</time>
      </trkpt>
      <trkpt lat="45.29788" lon="5.22832">
        <ele>522</ele>
        <time>2021-01-15T12:09:22Z</time>
      </trkpt>
      <trkpt lat="45.29786" lon="5.22855">
        <ele>522</ele>
        <time>2021-01-15T12:09:26Z</time>
      </trkpt>
      <trkpt lat="45.2979" lon="5.22884">
        <ele>523</ele>
        <time>2021-01-15T12:09:31Z</time>
      </trkpt>
      <trkpt lat="45.29799" lon="5.22932">
        <ele>525</ele>
        <time>2021-01-15T12:09:39Z</time>
      </trkpt>
      <trkpt lat="45.29793" lon="5.22975">
        <ele>529</ele>
        <time>2021-01-15T12:09:46Z</time>
      </trkpt>
      <trkpt lat="45.29785" lon="5.22999">
        <ele>530</ele>
        <time>2021-01-15T12:09:51Z</time>
      </trkpt>
      <trkpt lat="45.29795" lon="5.23016">
        <ele>532</ele>
        <time>2021-01-15T12:09:54Z</time>
      </trkpt>
      <trkpt lat="45.29808" lon="5.23048">
        <ele>534</ele>
        <time>2021-01-15T12:10:00Z</time>
      </trkpt>
      <trkpt lat="45.29831" lon="5.23135">
        <ele>537</ele>
        <time>2021-01-15T12:10:16Z</time>
      </trkpt>
      <trkpt lat="45.29833" lon="5.23169">
        <ele>538</ele>
        <time>2021-01-15T12:10:21Z</time>
      </trkpt>
      <trkpt lat="45.29815" lon="5.2324">
        <ele>540</ele>
        <time>2021-01-15T12:10:34Z</time>
      </trkpt>
      <trkpt lat="45.29807" lon="5.23294">
        <ele>544</ele>
        <time>2021-01-15T12:10:43Z</time>
      </trkpt>
      <trkpt lat="45.29809" lon="5.23332">
        <ele>547</ele>
        <time>2021-01-15T12:10:49Z</time>
      </trkpt>
      <trkpt lat="45.29816" lon="5.23365">
        <ele>547</ele>
        <time>2021-01-15T12:10:55Z</time>
      </trkpt>
      <trkpt lat="45.29829" lon="5.23499">
        <ele>549</ele>
        <time>2021-01-15T12:11:17Z</time>
      </trkpt>
      <trkpt lat="45.29826" lon="5.236">
        <ele>557</ele>
        <time>2021-01-15T12:11:33Z</time>
      </trkpt>
      <trkpt lat="45.29819" lon="5.23691">
        <ele>563</ele>
        <time>2021-01-15T12:11:48Z</time>
      </trkpt>
      <trkpt lat="45.29822" lon="5.23741">
        <ele>564</ele>
        <time>2021-01-15T12:11:57Z</time>
      </trkpt>
      <trkpt lat="45.29855" lon="5.23871">
        <ele>566</ele>
        <time>2021-01-15T12:12:19Z</time>
      </trkpt>
      <trkpt lat="45.29862" lon="5.23911">
        <ele>567</ele>
        <time>2021-01-15T12:12:26Z</time>
      </trkpt>
      <trkpt lat="45.29861" lon="5.23941">
        <ele>568</ele>
        <time>2021-01-15T12:12:31Z</time>
      </trkpt>
      <trkpt lat="45.29852" lon="5.23985">
        <ele>570</ele>
        <time>2021-01-15T12:12:39Z</time>
      </trkpt>
      <trkpt lat="45.29835" lon="5.24036">
        <ele>572</ele>
        <time>2021-01-15T12:12:48Z</time>
      </trkpt>
      <trkpt lat="45.29835" lon="5.24091">
        <ele>573</ele>
        <time>2021-01-15T12:12:57Z</time>
      </trkpt>
      <trkpt lat="45.29843" lon="5.24153">
        <ele>571</ele>
        <time>2021-01-15T12:13:07Z</time>
      </trkpt>
      <trkpt lat="45.29856" lon="5.24164">
        <ele>570</ele>
        <time>2021-01-15T12:13:11Z</time>
      </trkpt>
      <trkpt lat="45.29954" lon="5.24193">
        <ele>561</ele>
        <time>2021-01-15T12:13:34Z</time>
      </trkpt>
      <trkpt lat="45.30065" lon="5.24242">
        <ele>552</ele>
        <time>2021-01-15T12:14:01Z</time>
      </trkpt>
      <trkpt lat="45.30135" lon="5.24235">
        <ele>550</ele>
        <time>2021-01-15T12:14:18Z</time>
      </trkpt>
      <trkpt lat="45.30206" lon="5.24212">
        <ele>547</ele>
        <time>2021-01-15T12:14:35Z</time>
      </trkpt>
      <trkpt lat="45.30225" lon="5.24219">
        <ele>548</ele>
        <time>2021-01-15T12:14:39Z</time>
      </trkpt>
      <trkpt lat="45.30254" lon="5.24234">
        <ele>548</ele>
        <time>2021-01-15T12:14:47Z</time>
      </trkpt>
      <trkpt lat="45.3031" lon="5.24254">
        <ele>548</ele>
        <time>2021-01-15T12:15:00Z</time>
      </trkpt>
      <trkpt lat="45.30421" lon="5.24285">
        <ele>545</ele>
        <time>2021-01-15T12:15:26Z</time>
      </trkpt>
      <trkpt lat="45.30438" lon="5.24294">
        <ele>545</ele>
        <time>2021-01-15T12:15:31Z</time>
      </trkpt>
      <trkpt lat="45.30507" lon="5.2431">
        <ele>546</ele>
        <time>2021-01-15T12:15:47Z</time>
      </trkpt>
      <trkpt lat="45.30542" lon="5.24297">
        <ele>547</ele>
        <time>2021-01-15T12:15:55Z</time>
      </trkpt>
      <trkpt lat="45.30603" lon="5.24266">
        <ele>545</ele>
        <time>2021-01-15T12:16:11Z</time>
      </trkpt>
      <trkpt lat="45.30654" lon="5.24246">
        <ele>543</ele>
        <time>2021-01-15T12:16:23Z</time>
      </trkpt>
      <trkpt lat="45.30693" lon="5.24236">
        <ele>540</ele>
        <time>2021-01-15T12:16:32Z</time>
      </trkpt>
      <trkpt lat="45.30721" lon="5.24237">
        <ele>537</ele>
        <time>2021-01-15T12:16:39Z</time>
      </trkpt>
      <trkpt lat="45.30772" lon="5.24247">
        <ele>527</ele>
        <time>2021-01-15T12:16:51Z</time>
      </trkpt>
      <trkpt lat="45.30791" lon="5.24276">
        <ele>520</ele>
        <time>2021-01-15T12:16:57Z</time>
      </trkpt>
      <trkpt lat="45.30807" lon="5.24311">
        <ele>514</ele>
        <time>2021-01-15T12:17:04Z</time>
      </trkpt>
      <trkpt lat="45.30809" lon="5.24329">
        <ele>513</ele>
        <time>2021-01-15T12:17:07Z</time>
      </trkpt>
      <trkpt lat="45.30798" lon="5.24354">
        <ele>516</ele>
        <time>2021-01-15T12:17:12Z</time>
      </trkpt>
      <trkpt lat="45.30774" lon="5.24459">
        <ele>518</ele>
        <time>2021-01-15T12:17:30Z</time>
      </trkpt>
      <trkpt lat="45.30762" lon="5.24492">
        <ele>517</ele>
        <time>2021-01-15T12:17:36Z</time>
      </trkpt>
      <trkpt lat="45.30743" lon="5.24523">
        <ele>519</ele>
        <time>2021-01-15T12:17:43Z</time>
      </trkpt>
      <trkpt lat="45.30714" lon="5.24558">
        <ele>523</ele>
        <time>2021-01-15T12:17:52Z</time>
      </trkpt>
      <trkpt lat="45.30685" lon="5.24583">
        <ele>527</ele>
        <time>2021-01-15T12:18:00Z</time>
      </trkpt>
      <trkpt lat="45.30636" lon="5.24658">
        <ele>526</ele>
        <time>2021-01-15T12:18:17Z</time>
      </trkpt>
      <trkpt lat="45.30616" lon="5.24713">
        <ele>521</ele>
        <time>2021-01-15T12:18:27Z</time>
      </trkpt>
      <trkpt lat="45.30597" lon="5.24773">
        <ele>515</ele>
        <time>2021-01-15T12:18:38Z</time>
      </trkpt>
      <trkpt lat="45.30587" lon="5.24813">
        <ele>512</ele>
        <time>2021-01-15T12:18:45Z</time>
      </trkpt>
      <trkpt lat="45.30585" lon="5.24843">
        <ele>510</ele>
        <time>2021-01-15T12:18:49Z</time>
      </trkpt>
      <trkpt lat="45.30586" lon="5.24876">
        <ele>509</ele>
        <time>2021-01-15T12:18:55Z</time>
      </trkpt>
      <trkpt lat="45.30592" lon="5.24902">
        <ele>507</ele>
        <time>2021-01-15T12:18:59Z</time>
      </trkpt>
      <trkpt lat="45.30617" lon="5.24932">
        <ele>505</ele>
        <time>2021-01-15T12:19:07Z</time>
      </trkpt>
      <trkpt lat="45.30623" lon="5.24971">
        <ele>506</ele>
        <time>2021-01-15T12:19:14Z</time>
      </trkpt>
      <trkpt lat="45.30634" lon="5.24997">
        <ele>505</ele>
        <time>2021-01-15T12:19:19Z</time>
      </trkpt>
      <trkpt lat="45.30596" lon="5.24975">
        <ele>510</ele>
        <time>2021-01-15T12:19:28Z</time>
      </trkpt>
      <trkpt lat="45.3058" lon="5.24976">
        <ele>513</ele>
        <time>2021-01-15T12:19:32Z</time>
      </trkpt>
      <trkpt lat="45.30551" lon="5.24998">
        <ele>516</ele>
        <time>2021-01-15T12:19:40Z</time>
      </trkpt>
      <trkpt lat="45.30499" lon="5.25068">
        <ele>526</ele>
        <time>2021-01-15T12:19:56Z</time>
      </trkpt>
      <trkpt lat="45.30471" lon="5.25092">
        <ele>528</ele>
        <time>2021-01-15T12:20:04Z</time>
      </trkpt>
      <trkpt lat="45.30439" lon="5.25162">
        <ele>538</ele>
        <time>2021-01-15T12:20:18Z</time>
      </trkpt>
      <trkpt lat="45.30407" lon="5.25222">
        <ele>547</ele>
        <time>2021-01-15T12:20:30Z</time>
      </trkpt>
      <trkpt lat="45.30391" lon="5.25274">
        <ele>553</ele>
        <time>2021-01-15T12:20:39Z</time>
      </trkpt>
      <trkpt lat="45.30386" lon="5.25315">
        <ele>557</ele>
        <time>2021-01-15T12:20:46Z</time>
      </trkpt>
      <trkpt lat="45.30377" lon="5.25345">
        <ele>560</ele>
        <time>2021-01-15T12:20:52Z</time>
      </trkpt>
      <trkpt lat="45.3036" lon="5.25386">
        <ele>564</ele>
        <time>2021-01-15T12:20:59Z</time>
      </trkpt>
      <trkpt lat="45.30334" lon="5.25432">
        <ele>570</ele>
        <time>2021-01-15T12:21:09Z</time>
      </trkpt>
      <trkpt lat="45.30319" lon="5.25462">
        <ele>573</ele>
        <time>2021-01-15T12:21:15Z</time>
      </trkpt>
      <trkpt lat="45.30227" lon="5.25681">
        <ele>588</ele>
        <time>2021-01-15T12:21:57Z</time>
      </trkpt>
      <trkpt lat="45.30209" lon="5.25736">
        <ele>592</ele>
        <time>2021-01-15T12:22:07Z</time>
      </trkpt>
      <trkpt lat="45.302" lon="5.25785">
        <ele>595</ele>
        <time>2021-01-15T12:22:15Z</time>
      </trkpt>
      <trkpt lat="45.30185" lon="5.25802">
        <ele>597</ele>
        <time>2021-01-15T12:22:20Z</time>
      </trkpt>
      <trkpt lat="45.30144" lon="5.25781">
        <ele>600</ele>
        <time>2021-01-15T12:22:30Z</time>
      </trkpt>
      <trkpt lat="45.30116" lon="5.25759">
        <ele>600</ele>
        <time>2021-01-15T12:22:37Z</time>
      </trkpt>
      <trkpt lat="45.30072" lon="5.25708">
        <ele>599</ele>
        <time>2021-01-15T12:22:51Z</time>
      </trkpt>
      <trkpt lat="45.30059" lon="5.25688">
        <ele>598</ele>
        <time>2021-01-15T12:22:55Z</time>
      </trkpt>
      <trkpt lat="45.30021" lon="5.25657">
        <ele>598</ele>
        <time>2021-01-15T12:23:05Z</time>
      </trkpt>
      <trkpt lat="45.30002" lon="5.25631">
        <ele>598</ele>
        <time>2021-01-15T12:23:12Z</time>
      </trkpt>
      <trkpt lat="45.29981" lon="5.25618">
        <ele>598</ele>
        <time>2021-01-15T12:23:17Z</time>
      </trkpt>
      <trkpt lat="45.29963" lon="5.25593">
        <ele>598</ele>
        <time>2021-01-15T12:23:23Z</time>
      </trkpt>
      <trkpt lat="45.29946" lon="5.25564">
        <ele>598</ele>
        <time>2021-01-15T12:23:29Z</time>
      </trkpt>
      <trkpt lat="45.2989" lon="5.25526">
        <ele>597</ele>
        <time>2021-01-15T12:23:43Z</time>
      </trkpt>
      <trkpt lat="45.29887" lon="5.25533">
        <ele>597</ele>
        <time>2021-01-15T12:23:45Z</time>
      </trkpt>
      <trkpt lat="45.29873" lon="5.25522">
        <ele>596</ele>
        <time>2021-01-15T12:23:49Z</time>
      </trkpt>
      <trkpt lat="45.29865" lon="5.2552">
        <ele>596</ele>
        <time>2021-01-15T12:23:50Z</time>
      </trkpt>
      <trkpt lat="45.29853" lon="5.25533">
        <ele>595</ele>
        <time>2021-01-15T12:23:54Z</time>
      </trkpt>
      <trkpt lat="45.29841" lon="5.25558">
        <ele>593</ele>
        <time>2021-01-15T12:23:59Z</time>
      </trkpt>
      <trkpt lat="45.2983" lon="5.25565">
        <ele>591</ele>
        <time>2021-01-15T12:24:02Z</time>
      </trkpt>
      <trkpt lat="45.29818" lon="5.2556">
        <ele>589</ele>
        <time>2021-01-15T12:24:05Z</time>
      </trkpt>
      <trkpt lat="45.29805" lon="5.25546">
        <ele>587</ele>
        <time>2021-01-15T12:24:08Z</time>
      </trkpt>
      <trkpt lat="45.29797" lon="5.25546">
        <ele>585</ele>
        <time>2021-01-15T12:24:10Z</time>
      </trkpt>
      <trkpt lat="45.29787" lon="5.2556">
        <ele>583</ele>
        <time>2021-01-15T12:24:14Z</time>
      </trkpt>
      <trkpt lat="45.29741" lon="5.25593">
        <ele>576</ele>
        <time>2021-01-15T12:24:26Z</time>
      </trkpt>
      <trkpt lat="45.29728" lon="5.25615">
        <ele>576</ele>
        <time>2021-01-15T12:24:30Z</time>
      </trkpt>
      <trkpt lat="45.29723" lon="5.25632">
        <ele>576</ele>
        <time>2021-01-15T12:24:33Z</time>
      </trkpt>
      <trkpt lat="45.29695" lon="5.25683">
        <ele>574</ele>
        <time>2021-01-15T12:24:44Z</time>
      </trkpt>
      <trkpt lat="45.29681" lon="5.25719">
        <ele>574</ele>
        <time>2021-01-15T12:24:51Z</time>
      </trkpt>
      <trkpt lat="45.29682" lon="5.25752">
        <ele>575</ele>
        <time>2021-01-15T12:24:56Z</time>
      </trkpt>
      <trkpt lat="45.29663" lon="5.25781">
        <ele>574</ele>
        <time>2021-01-15T12:25:03Z</time>
      </trkpt>
      <trkpt lat="45.29641" lon="5.25806">
        <ele>576</ele>
        <time>2021-01-15T12:25:09Z</time>
      </trkpt>
      <trkpt lat="45.29634" lon="5.25836">
        <ele>579</ele>
        <time>2021-01-15T12:25:14Z</time>
      </trkpt>
      <trkpt lat="45.29627" lon="5.25854">
        <ele>582</ele>
        <time>2021-01-15T12:25:18Z</time>
      </trkpt>
      <trkpt lat="45.29622" lon="5.25846">
        <ele>581</ele>
        <time>2021-01-15T12:25:20Z</time>
      </trkpt>
      <trkpt lat="45.29617" lon="5.25826">
        <ele>579</ele>
        <time>2021-01-15T12:25:23Z</time>
      </trkpt>
      <trkpt lat="45.29606" lon="5.258">
        <ele>577</ele>
        <time>2021-01-15T12:25:28Z</time>
      </trkpt>
      <trkpt lat="45.29595" lon="5.25786">
        <ele>576</ele>
        <time>2021-01-15T12:25:32Z</time>
      </trkpt>
      <trkpt lat="45.29574" lon="5.25785">
        <ele>574</ele>
        <time>2021-01-15T12:25:36Z</time>
      </trkpt>
      <trkpt lat="45.29552" lon="5.25803">
        <ele>573</ele>
        <time>2021-01-15T12:25:42Z</time>
      </trkpt>
      <trkpt lat="45.29536" lon="5.25817">
        <ele>573</ele>
        <time>2021-01-15T12:25:47Z</time>
      </trkpt>
      <trkpt lat="45.29508" lon="5.25871">
        <ele>577</ele>
        <time>2021-01-15T12:25:58Z</time>
      </trkpt>
      <trkpt lat="45.29464" lon="5.25901">
        <ele>570</ele>
        <time>2021-01-15T12:26:09Z</time>
      </trkpt>
      <trkpt lat="45.29394" lon="5.25986">
        <ele>567</ele>
        <time>2021-01-15T12:26:31Z</time>
      </trkpt>
      <trkpt lat="45.29295" lon="5.26083">
        <ele>558</ele>
        <time>2021-01-15T12:26:59Z</time>
      </trkpt>
      <trkpt lat="45.29258" lon="5.26155">
        <ele>559</ele>
        <time>2021-01-15T12:27:13Z</time>
      </trkpt>
      <trkpt lat="45.29226" lon="5.26201">
        <ele>564</ele>
        <time>2021-01-15T12:27:24Z</time>
      </trkpt>
      <trkpt lat="45.29186" lon="5.26225">
        <ele>565</ele>
        <time>2021-01-15T12:27:34Z</time>
      </trkpt>
      <trkpt lat="45.29178" lon="5.26248">
        <ele>566</ele>
        <time>2021-01-15T12:27:38Z</time>
      </trkpt>
      <trkpt lat="45.29176" lon="5.26294">
        <ele>569</ele>
        <time>2021-01-15T12:27:46Z</time>
      </trkpt>
      <trkpt lat="45.29177" lon="5.26339">
        <ele>572</ele>
        <time>2021-01-15T12:27:53Z</time>
      </trkpt>
      <trkpt lat="45.29182" lon="5.26359">
        <ele>574</ele>
        <time>2021-01-15T12:27:57Z</time>
      </trkpt>
      <trkpt lat="45.29197" lon="5.264">
        <ele>580</ele>
        <time>2021-01-15T12:28:04Z</time>
      </trkpt>
      <trkpt lat="45.2919" lon="5.26428">
        <ele>579</ele>
        <time>2021-01-15T12:28:09Z</time>
      </trkpt>
      <trkpt lat="45.29175" lon="5.26455">
        <ele>577</ele>
        <time>2021-01-15T12:28:15Z</time>
      </trkpt>
      <trkpt lat="45.29152" lon="5.26442">
        <ele>576</ele>
        <time>2021-01-15T12:28:21Z</time>
      </trkpt>
      <trkpt lat="45.29131" lon="5.26417">
        <ele>580</ele>
        <time>2021-01-15T12:28:27Z</time>
      </trkpt>
      <trkpt lat="45.29111" lon="5.26367">
        <ele>581</ele>
        <time>2021-01-15T12:28:37Z</time>
      </trkpt>
      <trkpt lat="45.29076" lon="5.2631">
        <ele>583</ele>
        <time>2021-01-15T12:28:49Z</time>
      </trkpt>
      <trkpt lat="45.2904" lon="5.26271">
        <ele>584</ele>
        <time>2021-01-15T12:29:00Z</time>
      </trkpt>
      <trkpt lat="45.29019" lon="5.26252">
        <ele>585</ele>
        <time>2021-01-15T12:29:05Z</time>
      </trkpt>
      <trkpt lat="45.28983" lon="5.26211">
        <ele>587</ele>
        <time>2021-01-15T12:29:16Z</time>
      </trkpt>
      <trkpt lat="45.28958" lon="5.26165">
        <ele>587</ele>
        <time>2021-01-15T12:29:26Z</time>
      </trkpt>
      <trkpt lat="45.28913" lon="5.26109">
        <ele>585</ele>
        <time>2021-01-15T12:29:40Z</time>
      </trkpt>
      <trkpt lat="45.28867" lon="5.26072">
        <ele>585</ele>
        <time>2021-01-15T12:29:52Z</time>
      </trkpt>
      <trkpt lat="45.28859" lon="5.26056">
        <ele>584</ele>
        <time>2021-01-15T12:29:55Z</time>
      </trkpt>
      <trkpt lat="45.2879" lon="5.2595">
        <ele>585</ele>
        <time>2021-01-15T12:30:19Z</time>
      </trkpt>
      <trkpt lat="45.28754" lon="5.25909">
        <ele>591</ele>
        <time>2021-01-15T12:30:30Z</time>
      </trkpt>
      <trkpt lat="45.28721" lon="5.25878">
        <ele>597</ele>
        <time>2021-01-15T12:30:39Z</time>
      </trkpt>
      <trkpt lat="45.2871" lon="5.25861">
        <ele>599</ele>
        <time>2021-01-15T12:30:43Z</time>
      </trkpt>
      <trkpt lat="45.28648" lon="5.25779">
        <ele>608</ele>
        <time>2021-01-15T12:31:03Z</time>
      </trkpt>
      <trkpt lat="45.28543" lon="5.25661">
        <ele>615</ele>
        <time>2021-01-15T12:31:34Z</time>
      </trkpt>
      <trkpt lat="45.28509" lon="5.25606">
        <ele>616</ele>
        <time>2021-01-15T12:31:46Z</time>
      </trkpt>
      <trkpt lat="45.28453" lon="5.2554">
        <ele>616</ele>
        <time>2021-01-15T12:32:03Z</time>
      </trkpt>
      <trkpt lat="45.28408" lon="5.25493">
        <ele>616</ele>
        <time>2021-01-15T12:32:16Z</time>
      </trkpt>
      <trkpt lat="45.28357" lon="5.25456">
        <ele>617</ele>
        <time>2021-01-15T12:32:29Z</time>
      </trkpt>
      <trkpt lat="45.28272" lon="5.25592">
        <ele>622</ele>
        <time>2021-01-15T12:32:59Z</time>
      </trkpt>
      <trkpt lat="45.28251" lon="5.25615">
        <ele>623</ele>
        <time>2021-01-15T12:33:05Z</time>
      </trkpt>
      <trkpt lat="45.28203" lon="5.25652">
        <ele>624</ele>
        <time>2021-01-15T12:33:18Z</time>
      </trkpt>
      <trkpt lat="45.28136" lon="5.25733">
        <ele>624</ele>
        <time>2021-01-15T12:33:39Z</time>
      </trkpt>
      <trkpt lat="45.28102" lon="5.25828">
        <ele>626</ele>
        <time>2021-01-15T12:33:56Z</time>
      </trkpt>
      <trkpt lat="45.28035" lon="5.25904">
        <ele>623</ele>
        <time>2021-01-15T12:34:16Z</time>
      </trkpt>
      <trkpt lat="45.28004" lon="5.25959">
        <ele>623</ele>
        <time>2021-01-15T12:34:28Z</time>
      </trkpt>
      <trkpt lat="45.28031" lon="5.25965">
        <ele>622</ele>
        <time>2021-01-15T12:34:34Z</time>
      </trkpt>
      <trkpt lat="45.2836" lon="5.26116">
        <ele>622</ele>
        <time>2021-01-15T12:35:55Z</time>
      </trkpt>
      <trkpt lat="45.28463" lon="5.26213">
        <ele>622</ele>
        <time>2021-01-15T12:36:24Z</time>
      </trkpt>
      <trkpt lat="45.2853" lon="5.26284">
        <ele>622</ele>
        <time>2021-01-15T12:36:43Z</time>
      </trkpt>
      <trkpt lat="45.2862" lon="5.26352">
        <ele>623</ele>
        <time>2021-01-15T12:37:07Z</time>
      </trkpt>
      <trkpt lat="45.28644" lon="5.26387">
        <ele>624</ele>
        <time>2021-01-15T12:37:15Z</time>
      </trkpt>
      <trkpt lat="45.28649" lon="5.26402">
        <ele>624</ele>
        <time>2021-01-15T12:37:18Z</time>
      </trkpt>
      <trkpt lat="45.28636" lon="5.26471">
        <ele>624</ele>
        <time>2021-01-15T12:37:30Z</time>
      </trkpt>
      <trkpt lat="45.28635" lon="5.26536">
        <ele>622</ele>
        <time>2021-01-15T12:37:40Z</time>
      </trkpt>
      <trkpt lat="45.28642" lon="5.26567">
        <ele>622</ele>
        <time>2021-01-15T12:37:46Z</time>
      </trkpt>
      <trkpt lat="45.28709" lon="5.26676">
        <ele>620</ele>
        <time>2021-01-15T12:38:09Z</time>
      </trkpt>
      <trkpt lat="45.28802" lon="5.26858">
        <ele>623</ele>
        <time>2021-01-15T12:38:46Z</time>
      </trkpt>
      <trkpt lat="45.2878" lon="5.26887">
        <ele>623</ele>
        <time>2021-01-15T12:38:53Z</time>
      </trkpt>
      <trkpt lat="45.2874" lon="5.26925">
        <ele>622</ele>
        <time>2021-01-15T12:39:05Z</time>
      </trkpt>
      <trkpt lat="45.28696" lon="5.26981">
        <ele>614</ele>
        <time>2021-01-15T12:39:18Z</time>
      </trkpt>
      <trkpt lat="45.2867" lon="5.27041">
        <ele>610</ele>
        <time>2021-01-15T12:39:30Z</time>
      </trkpt>
      <trkpt lat="45.28633" lon="5.2706">
        <ele>603</ele>
        <time>2021-01-15T12:39:39Z</time>
      </trkpt>
      <trkpt lat="45.28609" lon="5.27095">
        <ele>598</ele>
        <time>2021-01-15T12:39:47Z</time>
      </trkpt>
      <trkpt lat="45.28607" lon="5.27085">
        <ele>598</ele>
        <time>2021-01-15T12:39:49Z</time>
      </trkpt>
      <trkpt lat="45.28569" lon="5.27118">
        <ele>591</ele>
        <time>2021-01-15T12:39:59Z</time>
      </trkpt>
      <trkpt lat="45.28544" lon="5.2711">
        <ele>590</ele>
        <time>2021-01-15T12:40:05Z</time>
      </trkpt>
      <trkpt lat="45.28525" lon="5.27081">
        <ele>589</ele>
        <time>2021-01-15T12:40:12Z</time>
      </trkpt>
      <trkpt lat="45.28498" lon="5.27079">
        <ele>587</ele>
        <time>2021-01-15T12:40:18Z</time>
      </trkpt>
      <trkpt lat="45.28496" lon="5.27082">
        <ele>587</ele>
        <time>2021-01-15T12:40:19Z</time>
      </trkpt>
      <trkpt lat="45.28503" lon="5.27112">
        <ele>588</ele>
        <time>2021-01-15T12:40:24Z</time>
      </trkpt>
      <trkpt lat="45.28471" lon="5.2721">
        <ele>594</ele>
        <time>2021-01-15T12:40:42Z</time>
      </trkpt>
      <trkpt lat="45.28447" lon="5.27247">
        <ele>597</ele>
        <time>2021-01-15T12:40:50Z</time>
      </trkpt>
      <trkpt lat="45.28444" lon="5.27261">
        <ele>599</ele>
        <time>2021-01-15T12:40:52Z</time>
      </trkpt>
      <trkpt lat="45.28446" lon="5.27276">
        <ele>600</ele>
        <time>2021-01-15T12:40:55Z</time>
      </trkpt>
      <trkpt lat="45.28453" lon="5.27285">
        <ele>600</ele>
        <time>2021-01-15T12:40:57Z</time>
      </trkpt>
      <trkpt lat="45.28471" lon="5.27282">
        <ele>599</ele>
        <time>2021-01-15T12:41:01Z</time>
      </trkpt>
      <trkpt lat="45.28503" lon="5.27319">
        <ele>602</ele>
        <time>2021-01-15T12:41:11Z</time>
      </trkpt>
      <trkpt lat="45.28519" lon="5.27376">
        <ele>608</ele>
        <time>2021-01-15T12:41:21Z</time>
      </trkpt>
      <trkpt lat="45.28536" lon="5.27443">
        <ele>613</ele>
        <time>2021-01-15T12:41:33Z</time>
      </trkpt>
      <trkpt lat="45.28522" lon="5.27638">
        <ele>623</ele>
        <time>2021-01-15T12:42:05Z</time>
      </trkpt>
      <trkpt lat="45.28555" lon="5.27711">
        <ele>626</ele>
        <time>2021-01-15T12:42:19Z</time>
      </trkpt>
      <trkpt lat="45.28608" lon="5.27872">
        <ele>632</ele>
        <time>2021-01-15T12:42:48Z</time>
      </trkpt>
      <trkpt lat="45.28647" lon="5.27941">
        <ele>630</ele>
        <time>2021-01-15T12:43:03Z</time>
      </trkpt>
      <trkpt lat="45.28711" lon="5.282">
        <ele>628</ele>
        <time>2021-01-15T12:43:48Z</time>
      </trkpt>
      <trkpt lat="45.28746" lon="5.28351">
        <ele>632</ele>
        <time>2021-01-15T12:44:14Z</time>
      </trkpt>
      <trkpt lat="45.28776" lon="5.28456">
        <ele>632</ele>
        <time>2021-01-15T12:44:33Z</time>
      </trkpt>
      <trkpt lat="45.28758" lon="5.28542">
        <ele>634</ele>
        <time>2021-01-15T12:44:48Z</time>
      </trkpt>
      <trkpt lat="45.28726" lon="5.28573">
        <ele>636</ele>
        <time>2021-01-15T12:44:57Z</time>
      </trkpt>
      <trkpt lat="45.28761" lon="5.28579">
        <ele>634</ele>
        <time>2021-01-15T12:45:05Z</time>
      </trkpt>
      <trkpt lat="45.28781" lon="5.28576">
        <ele>633</ele>
        <time>2021-01-15T12:45:09Z</time>
      </trkpt>
      <trkpt lat="45.28778" lon="5.28592">
        <ele>634</ele>
        <time>2021-01-15T12:45:12Z</time>
      </trkpt>
      <trkpt lat="45.28774" lon="5.28598">
        <ele>634</ele>
        <time>2021-01-15T12:45:14Z</time>
      </trkpt>
      <trkpt lat="45.28768" lon="5.28619">
        <ele>634</ele>
        <time>2021-01-15T12:45:17Z</time>
      </trkpt>
      <trkpt lat="45.28755" lon="5.28638">
        <ele>634</ele>
        <time>2021-01-15T12:45:22Z</time>
      </trkpt>
      <trkpt lat="45.28752" lon="5.28645">
        <ele>634</ele>
        <time>2021-01-15T12:45:23Z</time>
      </trkpt>
      <trkpt lat="45.28739" lon="5.2866">
        <ele>635</ele>
        <time>2021-01-15T12:45:27Z</time>
      </trkpt>
      <trkpt lat="45.28736" lon="5.28674">
        <ele>635</ele>
        <time>2021-01-15T12:45:29Z</time>
      </trkpt>
      <trkpt lat="45.28738" lon="5.28677">
        <ele>635</ele>
        <time>2021-01-15T12:45:30Z</time>
      </trkpt>
    </trkseg>
  </trk>
</gpx>